Tracking 35274 objects as of 10-Sep-2026
HD Live streaming from Space Station
objects crossing your sky now

SQX-1 R/B


SQX-1 R/B is no longer on orbit


NORAD ID: 58587
Int'l Code: 2023-199B
Launch date: December 17, 2023
Source: People's Republic of China (PRC)
Launch site: Jiuquan Satellite Launch Center, China (JSC)
Decay date: 2024-04-07

Note: This is a ROCKET BODY
Your satellite tracking list
Your tracking list is empty




NASA's NSSDC Master Catalog

Two Line Element Set (TLE):
1 58587U 23199B   24097.86355249  .06173668  27586-5  27385-3 0  9999
2 58587  97.6648 230.2276 0028100 289.5997 229.2798 16.39735503 17613
Source of the keplerian elements: AFSPC